Location: La Brionne
(46.1728°N, 1.7849°E)
Time: 08:39:25
(UTC+00:00)

Meteor 2-5 Rocket - Pass Details

Date: 16 June 2021
Orbit: 833 x 911 km, 81.2° (Epoch: 01 August)

Event Time Altitude Azimuth Distance (km) Brightness Sun altitude
Exits shadow 22:24:27 22° 195° (SSW) 1,733 4.9 -17.6°
Maximum altitude 22:28:05 81° 282° (WNW) 855 3.7 -17.8°
Drops below altitude 10° 22:33:43 10° 9° (N) 2,480 7.1 -18.1°
Sets 22:36:10 0° 11° (N) 3,430 7.9 -18.3°
